Find Starlink 32042

NORAD ID: 60108 Int'l Des: 2024-117 Owner: SPXS Country: US Constellation: starlink operational
LEOCIRCULAR

リアルタイム位置

3D地球を読み込み中...

Starlink 32042について

説明を読み込み中...

次回通過

Passes for default location (London). Set your location on the main map for personalized predictions.

高度履歴

Loading altitude history...

軌道要素

1 60108U 24117T 26126.32930471 -.00001604 00000-0 -42082-4 0 9999
2 60108 53.1597 129.2282 0001251 90.8885 269.2259 15.30179582105710
Epoch: May 6, 2026 • Age: 18 hours

現在のステータス

高度 479.2 km
速度 7.63 km/s
衛星直下点 44.87°N, 8.07°E
打ち上げ日 Jun 23, 2024
運用期間 1.8 years
タイプ internet

技術仕様

分類 Payload
質量 730.00 kg
乾燥質量 700.00 kg
総質量 730.00 kg
長さ 0.30 m
直径 4.10 m
スパン 29.00 m
形状 Box + pan
製造者 SPXS
バスタイプ Starlink V2M
フェーズステータス In Orbit
所有者/国 SPXS/US

Most Searched